Regional Weather Roundup
Issued by NWS

Home | Current Version | Previous Version | Text Only | Print | Product List | Glossary Off
Versions: 1 2 3 4 5 6 7 8 9 10 11 12 13 14 15 16 17 18 19 20 21 22 23 24 25 26 27 28 29 30 31 32 33 34 35 36 37 38 39 40 41 42 43 44 45 46 47 48 49 50

299
ASUS43 KOAX 101210
RWRNE

WEATHER ROUNDUP FOR NEBRASKA
NATIONAL WEATHER SERVICE OMAHA NE
600 AM CST SAT DEC 10 2016

NOTES: SATELLITE DATA IS BEING USED TO AUGMENT CLOUD COVER ABOVE
       12000 FEET.
       "FAIR" INDICATES FEW OR NO CLOUDS BELOW 12,000 FEET WITH NO
       SIGNIFICANT WEATHER AND/OR OBSTRUCTIONS TO VISIBILITY.

  * THESE STATIONS DO NOT REPORT WEATHER SUCH AS RAIN...SNOW OR FOG.

NEZ001>004-019>022-054>056-101300-
NEBRASKA PANHANDLE

CITY           SKY/WX    TMP DP  RH WIND       PRES   REMARKS
SCOTTSBLUFF    CLOUDY    14   9  80 E10       29.95F WCI   1
6HR MIN TEMP:  13; 6HR MAX TEMP:  15;

ALLIANCE       CLOUDY    12   9  87 SE8       29.99F WCI   0
6HR MIN TEMP:   9; 6HR MAX TEMP:  12;

CHADRON        CLOUDY     4  -1  80 CALM      30.02F
6HR MIN TEMP:   3; 6HR MAX TEMP:  10; 6HR PCP: TRACE;

KIMBALL        CLOUDY    24  20  86 SW6       29.92F WCI  17
SIDNEY         CLOUDY    17  14  88 S10       29.97F WCI   5
6HR MIN TEMP:  17; 6HR MAX TEMP:  20;

$$

NEZ057>060-069>072-079>082-101300-
SOUTHWEST NEBRASKA

CITY           SKY/WX    TMP DP  RH WIND       PRES   REMARKS
NORTH PLATTE   CLOUDY    18  12  77 SE9       30.12F WCI   7
6HR MIN TEMP:  16; 6HR MAX TEMP:  18;

IMPERIAL       CLOUDY    18  14  84 SE10      30.08F WCI   6
6HR MIN TEMP:  17; 6HR MAX TEMP:  19;

LEXINGTON      CLOUDY    21  15  77 SE9       30.20S WCI  10
MCCOOK         CLOUDY    19  15  84 E8        30.15F WCI   9
6HR MIN TEMP:  14; 6HR MAX TEMP:  20;

OGALLALA       CLOUDY    18  15  85 SE6       30.07F WCI  10
$$

NEZ005>010-023>029-035>040-094-101300-
NORTH CENTRAL NEBRASKA

CITY           SKY/WX    TMP DP  RH WIND       PRES   REMARKS
VALENTINE      FLURRIES   8   2  76 E10       30.18F WCI  -6
6HR MIN TEMP:   5; 6HR MAX TEMP:   8; 6HR PCP:  0.19;

AINSWORTH      LGT SNOW   9   7  90 E13       30.17F WCI  -6
BROKEN BOW     CLOUDY    20  16  84 E10       30.19F WCI   9
6HR MIN TEMP:  18; 6HR MAX TEMP:  21; 6HR PCP: TRACE;

O`NEILL        LGT SNOW  11   8  87 E9        30.29F WCI  -2
ORD            CLOUDY    18  14  84 E8        30.26F WCI   8
6HR MIN TEMP:  11; 6HR MAX TEMP:  18; 6HR PCP: TRACE;

THEDFORD       CLOUDY    15  12  90 SE9       30.13F WCI   3
$$

NEZ041-046>049-061>064-073>077-083>087-101300-
SOUTH CENTRAL NEBRASKA

CITY           SKY/WX    TMP DP  RH WIND       PRES   REMARKS
GRAND ISLAND   CLEAR     15  13  91 E8        30.30F WCI   4
6HR MIN TEMP:  15; 6HR MAX TEMP:  20; 6HR PCP:  0.02;

AURORA         PTCLDY    19  16  89 E7        30.31S WCI   9
HASTINGS       CLOUDY    20  14  77 SE7       30.29F WCI  11
6HR MIN TEMP:  13; 6HR MAX TEMP:  20;

HEBRON         CLOUDY    23  18  81 SE6       30.34F WCI  16
HOLDREGE       CLOUDY    20  15  79 SE8       30.22R WCI  10
KEARNEY *      CLOUDY    19  12  73 SE10      30.25S WCI   8
YORK           CLOUDY    21  18  86 E7        30.33F WCI  13
$$

NEZ011>018-030>034-042>045-101300-
NORTHEAST NEBRASKA

CITY           SKY/WX    TMP DP  RH WIND       PRES   REMARKS
NORFOLK        LGT SNOW  17  13  84 E8        30.35F FOG     WCI   7
6HR MIN TEMP:  11; 6HR MAX TEMP:  17; 6HR PCP:  0.03;

ALBION         LGT SNOW  19  16  88 SE6       30.34S WCI  11
BLAIR          CLOUDY    23  16  76 NE5       30.39F WCI  16
FREMONT        FLURRIES  22  15  74 E3        30.40F
TEKAMAH        LGT SNOW  20  15  81 NE3       30.43F
6HR MIN TEMP:  20; 6HR MAX TEMP:  21; 6HR PCP: TRACE;

WAYNE          FLURRIES  17  14  87 E5        30.39S WCI  10
$$

NEZ050>053-065>068-078-088>093-101300-
SOUTHEAST NEBRASKA

CITY           SKY/WX    TMP DP  RH WIND       PRES   REMARKS
LINCOLN        CLOUDY    24  16  71 E5        30.40F WCI  18
6HR MIN TEMP:  22; 6HR MAX TEMP:  24;

OMAHA EPPLEY   CLOUDY    23  14  68 E3        30.43F
6HR MIN TEMP:  23; 6HR MAX TEMP:  23;

BEATRICE       CLOUDY    25  18  75 E5        30.37F WCI  19
FALLS CITY     CLOUDY    26  17  68 E6        30.42F WCI  19
6HR MIN TEMP:  25; 6HR MAX TEMP:  26;

NEBRASKA CITY  CLOUDY    24  14  64 SE5       30.40F WCI  18
PLATTSMOUTH    CLOUDY    23  14  68 E6        30.41F WCI  16
$$

NEZ044-045-051>053-067-101300-
OMAHA AREA

CITY           SKY/WX    TMP DP  RH WIND       PRES   REMARKS
OMAHA EPPLEY   CLOUDY    23  14  68 E3        30.43F
6HR MIN TEMP:  23; 6HR MAX TEMP:  23;

BLAIR          CLOUDY    23  16  76 NE5       30.39F WCI  16
FREMONT        FLURRIES  22  15  74 E3        30.40F
MILLARD        CLOUDY    25  16  68 CALM      30.42F
OFFUTT AFB     PTCLDY    23  17  77 E3        30.41F
PLATTSMOUTH    CLOUDY    23  14  68 E6        30.41F WCI  16
WAHOO          LGT SNOW  22  17  81 E6        30.40S WCI  15
$$




USA.gov is the U.S. government's official web portal to all federal, state and local government web resources and services.